Temperature
23 23 22 23 26 26 26 29 32 31 31 31 30 30 29 28 26 24 24 24 23 22 22 21 21 21 20 20 20 19 19 19 19 19 19 19 18 18 18 18 18 18 18 18 18 18 18 18 18
23 22 24 26 27 26 27 30 31 31 31 30 30 29 29 27 26 25 25 24 22 22 22 21 21 20 20 20 20 19 19 19 19 19 19 18 19 19 18 18 18 18 18 18 18 18 18 18 18
23 23 26 29 28 28 29 31 31 32 30 30 30 29 28 26 25 25 24 23 22 21 21 21 21 20 20 20 20 19 19 19 19 19 19 19 19 19 18 18 18 18 18 18 18 18 18 18 18
23 26 28 29 30 31 32 32 32 32 31 30 30 29 26 25 25 24 24 23 21 20 21 21 21 20 20 20 19 19 19 19 19 19 19 19 19 18 18 18 18 18 18 18 18 18 18 18 18
25 28 29 29 30 32 33 33 32 32 31 30 29 27 25 24 24 24 23 23 21 20 21 21 21 20 20 20 19 19 19 19 19 19 19 19 19 19 19 19 19 18 19 18 18 18 18 18 18
27 29 29 30 32 33 34 33 32 32 31 30 29 27 25 24 24 23 23 22 21 20 20 21 20 20 20 19 19 19 19 19 19 19 19 19 19 19 19 19 19 18 18 18 18 18 18 18 18
28 29 30 31 32 33 33 32 32 32 30 30 29 27 24 23 23 23 23 22 22 21 20 21 20 20 20 19 19 19 19 19 19 19 19 19 19 19 19 18 18 18 18 18 18 18 18 18 19
29 30 30 32 32 32 33 32 32 31 30 29 29 27 24 23 23 23 23 22 22 21 20 20 20 20 20 19 19 19 19 19 19 19 19 19 19 18 18 18 18 18 18 18 18 18 18 18 18
29 30 30 31 32 33 33 32 31 30 30 29 28 26 24 23 23 23 23 22 22 21 20 19 19 19 19 19 19 19 19 19 19 19 19 18 18 18 18 18 18 18 18 18 18 18 18 18 18
30 30 31 33 33 33 32 32 31 31 30 28 26 25 23 23 23 23 22 22 21 21 20 20 19 19 19 19 19 19 19 19 18 18 18 18 18 18 17 18 18 18 18 18 18 18 18 18 18
32 31 32 33 33 32 32 32 31 31 28 27 26 25 24 23 23 22 22 22 21 21 20 20 19 19 19 19 19 19 18 18 18 18 18 18 18 18 18 18 18 18 18 18 18 18 17 17 17
32 32 32 32 32 32 32 32 31 30 28 26 25 24 23 23 22 22 22 22 21 21 20 20 19 19 19 19 19 19 19 18 18 18 18 18 18 18 17 17 18 17 17 17 17 17 17 17 17
32 32 32 32 32 32 31 31 30 29 27 26 25 24 23 23 22 22 21 21 20 20 20 20 19 19 19 19 19 19 19 18 18 18 18 18 18 18 18 18 18 17 17 17 17 17 17 17 17
33 33 32 32 31 31 32 31 30 29 27 26 25 24 23 22 22 21 21 20 20 20 20 19 19 19 19 19 19 19 19 18 18 18 18 18 18 18 17 17 17 17 17 17 17 17 17 17 17
32 32 31 31 31 31 31 30 29 29 27 26 25 24 23 22 21 21 20 20 20 20 19 19 19 19 19 19 19 19 18 18 18 18 18 18 17 17 17 17 17 17 17 17 17 17 17 17 17
32 31 29 30 31 31 31 28 29 28 27 26 25 24 23 22 21 20 20 19 19 19 19 19 18 19 19 19 18 18 18 18 18 18 18 17 17 17 17 17 17 17 17 17 17 16 16 16 17
30 29 29 30 31 32 31 29 29 28 27 26 25 24 22 21 21 20 20 19 19 19 19 18 18 19 19 18 18 18 18 18 18 17 17 17 17 17 17 17 17 17 16 16 16 16 16 16 16
30 30 30 30 31 32 31 30 29 28 28 27 25 24 22 21 20 20 19 19 19 19 18 18 18 18 18 18 18 18 18 18 17 17 17 17 17 17 17 16 17 16 16 16 16 16 16 16 16
31 31 31 31 32 31 30 30 30 29 28 27 25 24 23 21 20 20 19 19 19 18 18 18 18 18 18 18 18 18 17 17 17 17 17 17 16 17 16 16 16 16 16 16 16 16 16 16 16
32 31 31 31 32 31 30 29 28 28 27 26 25 24 23 21 20 20 19 19 18 18 18 18 18 18 18 18 18 18 17 18 17 17 17 17 16 16 16 16 16 16 16 15 15 16 16 16 16
31 31 31 30 31 31 29 27 26 27 27 26 26 24 23 21 21 20 19 19 18 18 18 18 18 18 18 18 18 17 18 17 17 17 17 16 16 16 16 16 16 15 15 15 15 15 15 16 16
31 32 31 31 30 29 28 26 25 26 26 26 26 25 24 22 21 20 19 19 18 18 18 18 18 18 18 18 18 18 18 17 17 17 17 16 16 16 16 16 15 15 15 15 15 15 15 15 16
31 32 31 31 29 27 26 26 25 26 26 26 26 25 24 23 21 20 20 19 19 18 18 18 18 18 18 18 18 18 18 18 17 17 17 16 16 16 16 15 15 15 15 15 15 15 15 15 15
32 32 31 29 26 23 23 25 26 27 28 28 27 26 24 23 22 21 20 19 19 19 18 18 18 18 18 18 18 18 18 17 17 17 17 16 16 16 16 15 15 15 15 15 15 15 15 15 15
32 30 28 25 23 22 23 25 26 29 30 29 28 26 25 24 22 21 21 20 19 19 18 18 18 18 18 18 18 18 17 17 17 17 17 17 16 16 16 15 15 15 15 15 15 15 14 14 15
31 30 28 25 24 24 24 25 28 29 30 29 27 26 25 24 23 22 21 20 20 19 19 19 18 18 18 18 18 18 17 17 17 17 17 17 17 16 16 16 16 15 15 15 15 14 14 14 14
31 31 31 28 27 26 25 26 27 28 28 29 28 26 26 24 24 23 22 21 20 20 19 19 18 18 18 18 18 18 18 17 17 17 17 17 17 17 16 16 16 15 15 15 15 14 14 14 14
32 31 30 28 27 26 26 23 23 25 26 28 28 27 26 25 24 23 23 22 21 20 20 19 19 18 18 18 18 18 18 18 17 17 17 17 17 17 16 16 16 15 15 15 15 14 14 14 14
30 30 29 29 28 27 25 23 24 24 26 27 28 28 27 26 25 24 23 22 22 21 20 19 19 19 18 18 18 18 18 18 18 17 17 17 17 17 16 16 16 15 15 15 15 15 14 14 14
30 29 28 27 27 27 27 25 26 26 26 28 28 27 27 26 25 25 24 23 22 21 20 20 19 19 18 18 18 18 18 18 17 17 17 17 17 16 16 16 16 15 15 15 15 15 15 14 14
Wind_Speed
11 13 11 8 6 5 6 6 6 9 9 9 8 7 9 12 9 8 9 18 25 23 22 21 20 19 18 17 17 16 16 15 15 14 13 13 13 13 13 13 14 14 14 14 14 14 14 14 12
11 14 11 8 8 6 2 4 7 10 8 6 5 5 9 11 12 12 13 19 25 22 21 20 20 19 18 17 17 16 16 15 14 14 13 13 13 13 12 13 13 14 13 13 13 14 14 13 11
13 17 9 8 11 9 2 3 6 7 6 3 3 5 7 8 10 11 15 21 23 20 21 22 21 20 19 18 17 16 16 15 14 13 13 13 13 12 12 13 13 13 13 13 13 13 12 11 10
9 10 8 9 10 8 3 4 5 3 4 3 3 5 7 7 8 13 17 20 22 21 21 22 21 20 19 18 17 16 15 14 13 13 12 12 12 12 12 12 12 12 12 12 12 12 11 10 9
11 9 11 12 12 8 3 5 4 3 2 3 3 7 8 8 11 16 17 20 21 20 21 22 21 20 19 18 17 16 15 14 13 12 12 12 11 11 11 12 12 11 11 11 11 10 10 9 7
9 10 12 12 8 4 3 4 3 2 2 2 2 7 7 8 12 15 17 18 20 21 20 21 21 20 19 18 16 15 14 14 13 12 12 11 11 11 11 11 10 11 10 10 9 9 8 7 5
11 12 15 15 8 3 3 4 3 3 2 2 2 6 8 10 13 15 15 16 18 21 19 18 19 18 18 17 16 15 14 13 12 12 11 10 10 10 10 10 10 9 9 8 7 7 6 4 3
12 11 15 12 7 3 4 2 2 3 3 2 1 4 8 12 14 14 14 14 18 19 18 16 18 17 16 16 16 15 14 13 12 11 11 10 10 10 10 10 9 8 7 7 5 4 3 2 2
12 10 11 10 7 5 5 4 2 1 2 2 5 9 12 14 15 15 13 12 14 16 16 16 17 16 16 16 16 15 14 13 12 11 10 9 9 10 9 10 10 8 7 6 5 4 3 3 4
9 9 10 7 9 8 6 5 3 2 0 4 8 12 15 14 15 15 15 13 14 14 15 14 16 13 13 14 15 13 13 13 11 10 10 8 7 8 9 12 9 7 6 5 5 5 4 5 3
10 10 9 8 7 8 8 5 4 4 3 4 7 12 14 14 14 15 15 13 13 13 12 14 13 10 10 9 11 9 9 10 9 9 8 5 5 7 9 8 8 6 6 3 4 4 3 2 0
10 11 8 8 7 7 8 6 4 3 4 6 7 10 12 13 14 14 14 13 12 12 12 12 13 9 8 8 7 7 7 7 7 8 5 5 2 3 5 5 3 3 2 2 1 1 1 2 1
11 12 10 8 8 6 7 7 4 1 5 5 7 11 11 12 12 11 10 11 12 10 11 10 11 9 8 5 3 5 5 7 9 8 5 5 3 3 4 3 2 2 2 1 1 1 1 1 1
11 11 10 8 9 8 8 6 3 1 4 4 6 8 11 11 12 12 11 10 11 10 10 11 11 10 8 6 4 4 6 7 8 7 6 4 6 4 3 2 2 2 2 2 1 1 1 0 1
13 13 11 9 10 8 7 5 3 2 4 5 6 7 9 10 11 12 11 10 12 12 11 11 11 10 9 8 6 5 5 7 6 7 7 6 6 4 2 2 2 1 3 3 1 1 0 1 1
16 13 11 10 11 9 8 5 3 5 6 6 7 8 8 8 10 10 10 9 8 10 10 10 11 11 9 6 4 4 5 6 6 8 7 7 6 3 1 2 3 1 1 2 2 1 0 1 1
12 10 12 9 8 8 7 4 6 6 6 7 8 10 10 9 10 11 12 11 10 10 9 8 9 11 9 7 4 4 4 4 6 8 8 7 5 3 3 3 3 1 1 2 2 3 2 1 1
10 11 9 8 5 8 8 5 7 8 8 7 8 9 11 12 11 12 12 13 11 11 9 8 10 10 9 6 4 3 4 4 5 6 7 7 6 3 2 5 2 1 3 3 3 2 1 1 1
12 14 12 9 6 8 9 7 4 7 8 7 8 9 10 12 12 12 13 14 13 12 11 10 11 10 8 6 6 5 5 5 4 5 8 7 6 5 1 3 3 2 4 3 3 2 1 0 1
14 14 13 9 9 9 9 7 1 2 6 6 8 9 10 12 13 13 13 12 13 13 11 11 11 11 9 7 5 5 6 5 5 4 7 7 6 6 5 2 3 3 3 3 2 1 2 1 2
14 12 12 13 13 10 9 7 2 4 5 7 8 10 12 14 14 15 14 13 13 14 13 12 11 11 10 9 6 5 5 3 5 6 5 5 6 5 3 3 2 2 3 3 1 1 2 2 1
14 11 13 15 15 10 7 4 3 6 8 8 9 10 12 13 15 15 15 14 14 14 13 11 11 11 10 10 8 9 7 6 7 6 6 6 6 6 5 4 2 1 2 3 2 2 1 1 1
14 13 14 15 13 10 8 5 5 9 10 10 10 11 12 14 16 17 16 15 15 15 13 12 12 11 10 9 9 9 7 6 6 6 8 7 5 5 6 5 4 2 2 3 3 2 2 2 3
13 14 14 10 6 6 9 7 3 7 8 9 10 11 11 14 16 16 15 15 14 14 14 14 12 11 11 10 9 8 8 7 7 8 8 6 5 5 6 6 4 3 2 3 3 2 2 1 3
13 11 9 6 3 5 11 7 3 6 8 10 11 12 12 14 15 16 16 16 15 15 15 14 14 12 11 10 9 8 7 7 7 7 8 7 6 6 7 7 6 4 3 4 3 2 1 1 0
13 13 10 7 6 6 6 4 3 5 8 11 12 13 14 14 15 16 16 16 15 15 15 15 15 13 12 11 9 8 8 6 6 7 6 7 5 7 9 7 6 5 5 5 4 3 4 3 2
15 13 11 9 11 10 2 2 3 3 5 10 12 13 13 14 16 16 17 17 16 16 15 15 15 13 13 12 10 9 9 8 7 8 6 5 4 6 9 8 7 6 5 4 5 3 3 4 3
15 12 8 8 7 8 1 3 2 2 4 8 12 13 13 14 15 16 16 17 16 16 15 15 15 14 12 12 11 11 9 8 6 7 8 5 5 5 9 8 8 7 6 6 5 4 4 4 3
10 12 9 9 9 8 6 1 4 7 7 8 11 12 13 14 15 15 15 15 15 16 16 14 15 13 13 12 11 10 10 9 8 7 7 6 5 6 7 7 7 7 7 7 6 6 5 6 5
11 11 9 9 10 9 7 1 3 1 6 5 8 10 11 12 13 15 15 14 14 15 16 16 15 15 14 12 11 10 10 10 10 9 8 8 7 7 7 8 8 8 8 8 8 8 7 6 6
Wind_Direction
226 239 238 251 249 251 288 307 33 51 55 47 41 32 52 57 73 101 131 126 119 123 128 129 127 127 126 124 124 123 120 118 115 112 109 106 102 99 96 93 93 92 91 90 88 87 86 84 82
248 249 245 250 257 272 295 320 42 62 63 60 63 56 69 69 86 115 127 121 121 126 134 131 129 127 126 124 123 123 122 120 118 116 112 109 105 101 98 95 95 94 92 91 89 88 87 85 82
256 261 261 254 258 277 321 31 45 80 81 71 74 67 68 84 96 121 127 126 124 128 129 129 132 129 127 125 124 124 124 123 121 118 115 111 108 103 100 98 97 96 94 93 92 90 88 84 81
251 247 245 263 286 294 319 37 32 70 104 96 76 87 80 75 109 129 135 131 126 129 129 133 133 131 129 128 127 127 127 127 125 121 119 115 110 106 103 100 99 98 98 97 95 94 90 86 80
246 261 252 263 276 282 356 39 11 1 77 83 90 97 96 92 117 131 140 131 133 133 131 135 135 133 132 131 131 131 131 129 127 124 121 117 113 109 106 104 102 102 101 101 99 97 94 88 81
254 257 267 275 277 295 24 47 353 3 49 54 103 116 99 113 127 138 143 139 139 133 133 135 136 136 135 136 136 136 135 132 129 127 123 120 119 117 114 110 106 104 105 105 103 101 100 93 83
259 275 281 288 302 327 48 31 349 7 30 56 84 107 121 139 137 143 145 144 139 133 132 140 141 139 139 139 140 141 139 137 136 134 132 131 130 129 125 119 114 111 109 110 111 111 111 110 101
257 281 290 297 309 15 58 8 25 13 46 54 4 100 133 140 142 144 145 143 137 133 138 146 146 146 146 145 145 144 144 143 143 144 146 147 146 144 141 135 126 122 119 121 123 129 138 152 189
256 265 283 302 333 12 31 351 16 40 190 137 76 91 129 143 145 144 146 145 139 137 143 153 147 152 154 151 149 150 150 151 154 158 163 167 169 160 155 135 135 136 138 143 151 170 190 218 228
245 261 283 331 343 342 352 333 326 275 310 101 105 113 134 151 153 154 155 155 143 141 149 150 150 154 158 151 150 158 160 158 172 164 173 185 171 157 140 138 144 149 156 170 185 203 222 234 228
253 268 299 321 332 328 317 312 311 314 77 107 134 142 149 158 161 162 160 158 148 147 151 148 144 148 143 131 154 154 147 153 168 159 169 161 151 141 132 146 153 169 175 185 183 204 235 258 301
254 276 288 295 311 305 307 305 309 360 80 101 132 148 156 166 171 172 166 161 155 154 148 145 142 140 126 141 143 139 144 153 144 145 156 132 115 102 112 133 141 159 157 163 180 236 306 326 1
252 265 270 282 286 287 295 293 294 33 103 119 154 156 166 170 172 165 162 158 158 153 144 139 139 130 122 120 134 138 133 139 133 131 121 129 126 101 106 110 125 127 123 114 49 332 290 282 335
280 284 288 290 289 281 276 288 282 208 137 148 152 162 167 169 166 160 158 160 158 149 137 134 136 132 126 121 107 101 111 115 121 124 124 118 108 103 119 145 142 149 145 140 200 245 249 38 14
279 279 280 280 270 264 273 275 268 189 162 171 165 169 165 166 165 162 164 164 157 148 142 141 142 141 138 138 145 133 136 132 124 119 120 113 109 125 153 153 144 117 143 141 152 56 253 202 211
279 278 277 267 253 250 257 269 188 187 184 183 176 169 163 158 163 157 153 154 155 147 145 155 153 143 140 135 136 132 135 128 132 132 129 123 125 144 189 113 90 42 127 131 136 125 30 6 11
275 270 273 265 242 261 265 259 183 187 198 187 178 171 161 158 160 155 156 165 164 154 151 158 137 138 139 134 128 123 118 130 139 137 135 135 143 145 111 89 78 293 102 81 59 74 37 10 5
286 289 285 280 249 268 276 253 191 186 205 195 178 170 163 168 167 163 158 163 159 152 157 157 140 139 139 138 134 132 141 141 138 129 135 148 152 128 110 121 95 28 76 71 69 72 59 304 326
285 292 300 308 305 289 287 282 223 192 193 195 180 171 166 169 165 162 163 166 162 157 163 161 148 147 146 149 154 159 162 158 143 139 145 156 149 132 87 104 123 90 86 74 62 21 259 212 14
282 292 300 304 293 282 290 294 306 192 194 197 181 176 168 167 167 167 168 170 165 159 162 163 155 158 157 155 165 167 160 161 146 136 145 159 156 158 157 129 147 113 115 97 86 41 338 324 94
282 293 299 299 292 285 286 284 174 205 190 184 181 180 176 174 173 169 167 171 167 165 169 171 163 162 163 160 171 161 144 156 144 145 159 167 162 146 108 126 119 146 155 130 109 24 28 359 359
280 288 292 293 293 295 290 280 191 201 197 192 183 182 178 173 170 170 171 173 172 170 170 166 164 165 166 169 174 167 171 176 166 164 158 165 168 156 156 152 140 109 107 133 180 108 322 293 306
282 293 292 297 308 310 311 296 199 189 196 193 181 180 177 172 170 172 175 173 171 169 169 167 165 168 170 179 178 180 177 175 163 155 150 164 165 172 172 165 162 162 130 117 95 97 3 342 350
275 285 288 297 321 313 286 278 219 185 183 167 165 168 170 168 169 170 171 167 168 166 166 166 166 171 174 182 177 187 181 176 162 159 156 173 168 180 177 171 168 181 163 145 140 146 153 43 15
262 273 287 306 326 268 261 265 184 168 147 147 154 159 164 167 168 168 169 168 169 168 168 168 168 171 177 181 178 186 185 176 167 171 171 187 181 181 178 178 169 183 164 165 163 166 169 158 105
257 259 268 284 278 271 254 255 124 116 123 135 145 154 162 168 170 172 172 172 173 172 171 168 171 176 180 182 180 182 182 184 181 194 190 193 203 179 163 165 169 186 183 184 173 191 186 178 206
255 261 271 274 276 281 248 2 57 95 130 142 148 156 163 169 172 174 174 176 178 176 175 172 173 178 182 183 178 183 188 202 192 178 205 199 186 155 156 167 174 182 187 188 175 212 206 169 197
246 262 275 280 287 294 335 39 304 267 216 176 157 160 164 168 173 175 175 178 180 179 174 170 174 179 182 181 182 188 192 198 192 187 196 203 179 159 156 170 176 181 181 188 198 218 201 197 212
251 248 257 275 282 292 297 251 206 236 234 208 164 162 165 171 171 173 176 177 177 177 174 173 175 179 183 186 189 189 187 190 192 202 192 189 179 163 168 178 184 187 186 186 197 232 207 200 214
262 257 252 257 268 279 288 172 135 200 261 207 153 151 162 169 169 171 174 171 175 178 177 177 179 184 187 187 186 191 188 188 192 199 194 184 181 180 182 188 193 199 195 190 195 219 222 206 210
Height
1500 1499 1499 1501 1498 1496 1495 1477 1465 1468 1471 1475 1477 1478 1481 1487 1494 1506 1504 1505 1507 1510 1515 1520 1524 1527 1530 1532 1535 1537 1539 1541 1542 1544 1545 1546 1547 1548 1549 1550 1551 1552 1553 1554 1555 1555 1556 1557 1557
1500 1501 1502 1498 1493 1500 1493 1475 1470 1471 1475 1478 1479 1481 1484 1490 1495 1501 1504 1507 1508 1511 1516 1520 1524 1528 1531 1533 1536 1538 1540 1542 1544 1545 1547 1548 1549 1550 1551 1552 1553 1554 1555 1556 1556 1557 1558 1559 1560
1500 1501 1500 1490 1489 1491 1484 1472 1470 1471 1476 1478 1480 1483 1488 1494 1498 1502 1506 1508 1509 1513 1517 1521 1525 1529 1532 1534 1537 1539 1541 1543 1545 1547 1548 1550 1551 1552 1553 1554 1555 1556 1556 1557 1558 1559 1560 1561 1562
1501 1500 1495 1487 1484 1475 1469 1467 1469 1471 1476 1479 1481 1484 1492 1496 1499 1502 1506 1509 1511 1514 1518 1522 1526 1529 1533 1535 1538 1540 1542 1544 1546 1548 1550 1551 1552 1553 1554 1555 1556 1557 1558 1559 1560 1561 1562 1563 1564
1502 1497 1490 1487 1480 1468 1463 1466 1470 1472 1475 1478 1481 1487 1494 1498 1499 1502 1506 1509 1512 1516 1518 1522 1526 1530 1533 1536 1539 1541 1543 1545 1547 1549 1551 1552 1553 1555 1556 1557 1558 1559 1560 1561 1562 1562 1563 1564 1565
1499 1491 1490 1484 1472 1464 1463 1467 1471 1472 1476 1479 1482 1486 1495 1498 1500 1503 1507 1510 1513 1516 1518 1522 1527 1530 1534 1537 1540 1542 1544 1546 1548 1550 1552 1553 1555 1556 1557 1558 1559 1560 1561 1562 1563 1564 1565 1566 1567
1497 1489 1485 1475 1468 1464 1465 1469 1471 1474 1477 1480 1482 1487 1494 1498 1500 1504 1508 1510 1514 1517 1519 1522 1527 1531 1534 1537 1540 1543 1545 1547 1549 1551 1553 1554 1556 1557 1558 1559 1560 1561 1562 1563 1564 1565 1566 1567 1568
1493 1488 1483 1473 1469 1468 1466 1470 1473 1476 1480 1483 1484 1487 1495 1497 1500 1504 1508 1511 1514 1517 1520 1523 1528 1531 1534 1537 1541 1543 1546 1548 1550 1552 1554 1555 1557 1558 1559 1560 1561 1562 1563 1564 1565 1566 1567 1567 1568
1490 1489 1486 1474 1468 1466 1466 1470 1473 1477 1479 1482 1485 1488 1494 1497 1501 1505 1508 1511 1514 1518 1521 1525 1528 1532 1535 1538 1541 1544 1546 1548 1550 1553 1555 1556 1557 1559 1560 1561 1562 1563 1564 1564 1565 1566 1567 1568 1569
1485 1485 1479 1468 1466 1466 1468 1471 1474 1476 1478 1483 1487 1490 1494 1497 1501 1504 1507 1510 1513 1518 1522 1526 1529 1532 1536 1539 1541 1544 1546 1549 1551 1553 1555 1557 1559 1560 1561 1562 1563 1563 1564 1565 1565 1566 1567 1568 1569
1479 1477 1471 1468 1468 1469 1470 1471 1473 1474 1479 1484 1487 1490 1494 1498 1501 1504 1507 1511 1514 1517 1521 1525 1529 1533 1536 1539 1541 1544 1547 1549 1551 1554 1556 1558 1559 1561 1561 1562 1562 1563 1564 1564 1565 1566 1567 1568 1569
1476 1472 1471 1470 1470 1470 1470 1470 1472 1475 1480 1484 1487 1490 1493 1497 1500 1503 1507 1510 1513 1517 1520 1524 1529 1532 1536 1539 1542 1545 1547 1549 1552 1554 1556 1558 1560 1561 1561 1562 1562 1563 1564 1564 1565 1565 1566 1567 1568
1472 1470 1469 1469 1469 1469 1470 1470 1472 1475 1480 1483 1487 1489 1492 1496 1499 1502 1505 1509 1512 1515 1519 1524 1528 1532 1535 1538 1541 1545 1547 1549 1551 1554 1555 1557 1559 1560 1561 1561 1562 1562 1563 1563 1564 1564 1565 1566 1567
1469 1467 1467 1467 1468 1468 1468 1469 1472 1475 1479 1482 1485 1488 1491 1494 1497 1500 1502 1506 1510 1514 1518 1521 1526 1530 1534 1538 1541 1544 1546 1549 1551 1553 1555 1557 1558 1559 1560 1561 1561 1561 1562 1562 1563 1563 1564 1564 1565
1469 1468 1468 1468 1467 1466 1466 1469 1471 1473 1477 1480 1483 1486 1490 1493 1496 1498 1501 1504 1507 1512 1517 1521 1525 1529 1534 1537 1541 1544 1546 1549 1551 1552 1554 1555 1557 1558 1559 1560 1561 1561 1561 1562 1562 1562 1563 1564 1564
1468 1470 1475 1468 1465 1463 1468 1475 1470 1472 1475 1478 1481 1485 1489 1492 1495 1497 1499 1502 1506 1511 1516 1520 1524 1529 1533 1537 1540 1543 1546 1548 1550 1552 1553 1555 1556 1558 1559 1560 1560 1560 1561 1562 1562 1562 1562 1563 1563
1471 1477 1476 1467 1460 1459 1461 1469 1467 1470 1472 1475 1479 1483 1487 1491 1494 1496 1498 1501 1505 1510 1514 1520 1525 1528 1532 1536 1539 1542 1545 1548 1550 1551 1552 1554 1555 1557 1558 1558 1559 1560 1560 1561 1561 1561 1562 1562 1563
1476 1470 1468 1465 1457 1456 1458 1460 1462 1466 1469 1472 1476 1480 1484 1488 1492 1495 1497 1500 1505 1510 1515 1520 1524 1528 1531 1535 1538 1541 1545 1547 1549 1551 1552 1553 1555 1556 1557 1557 1558 1559 1559 1560 1560 1561 1561 1562 1562
1462 1463 1463 1458 1452 1454 1457 1457 1458 1461 1466 1469 1474 1478 1482 1486 1491 1494 1497 1501 1505 1510 1515 1519 1522 1526 1530 1533 1537 1540 1544 1546 1548 1550 1551 1553 1554 1555 1556 1557 1557 1558 1558 1559 1560 1560 1561 1562 1562
1458 1462 1461 1456 1450 1451 1455 1457 1457 1459 1464 1468 1471 1476 1480 1485 1489 1492 1496 1500 1503 1508 1512 1517 1521 1525 1529 1532 1536 1540 1543 1545 1548 1549 1550 1552 1553 1554 1556 1556 1557 1557 1558 1558 1559 1560 1560 1562 1562
1458 1460 1460 1458 1451 1448 1455 1463 1462 1460 1463 1466 1469 1473 1478 1482 1486 1490 1493 1498 1502 1506 1511 1515 1519 1523 1527 1531 1535 1539 1541 1544 1546 1548 1549 1551 1552 1553 1554 1555 1556 1557 1557 1558 1558 1559 1560 1561 1562
1461 1452 1452 1452 1456 1460 1460 1476 1470 1463 1463 1464 1467 1471 1475 1479 1483 1488 1492 1496 1501 1505 1510 1514 1518 1522 1526 1530 1533 1536 1539 1542 1545 1546 1547 1549 1551 1552 1553 1554 1555 1556 1557 1557 1558 1558 1559 1560 1561
1452 1447 1449 1452 1459 1467 1468 1474 1471 1460 1463 1461 1462 1467 1471 1476 1481 1486 1490 1495 1500 1504 1508 1512 1516 1520 1524 1528 1532 1535 1538 1541 1544 1545 1546 1548 1549 1550 1552 1553 1554 1555 1556 1556 1557 1557 1558 1559 1560
1445 1448 1450 1455 1469 1492 1482 1480 1473 1456 1452 1453 1457 1463 1469 1474 1480 1485 1490 1494 1499 1502 1507 1510 1514 1519 1522 1526 1530 1533 1537 1539 1541 1543 1544 1546 1548 1549 1550 1551 1552 1554 1554 1555 1556 1556 1557 1558 1558
1445 1458 1474 1486 1497 1498 1479 1475 1464 1445 1442 1448 1454 1461 1467 1472 1478 1483 1488 1493 1497 1501 1505 1509 1513 1516 1520 1524 1528 1531 1535 1537 1539 1541 1543 1545 1546 1547 1548 1550 1550 1552 1553 1554 1554 1555 1556 1556 1557
1446 1453 1474 1493 1496 1484 1476 1471 1454 1441 1443 1448 1453 1459 1465 1471 1476 1481 1486 1491 1495 1499 1503 1507 1511 1514 1518 1522 1526 1529 1532 1535 1537 1539 1541 1543 1545 1545 1546 1548 1549 1550 1551 1552 1553 1554 1555 1555 1556
1445 1446 1444 1461 1468 1474 1472 1464 1454 1445 1447 1448 1453 1458 1463 1468 1474 1479 1484 1489 1493 1497 1501 1505 1508 1512 1516 1520 1523 1527 1530 1533 1535 1537 1540 1541 1543 1544 1544 1546 1547 1548 1549 1550 1551 1552 1553 1554 1555
1434 1438 1446 1458 1473 1478 1473 1479 1477 1459 1454 1449 1451 1456 1461 1466 1471 1476 1481 1486 1490 1495 1499 1503 1507 1510 1514 1518 1521 1524 1527 1530 1533 1535 1537 1539 1541 1542 1542 1543 1544 1545 1546 1548 1549 1550 1551 1552 1553
1438 1441 1446 1450 1453 1469 1482 1482 1463 1458 1453 1450 1449 1454 1459 1464 1468 1473 1478 1483 1488 1492 1496 1500 1504 1508 1511 1515 1518 1522 1524 1527 1530 1532 1534 1536 1537 1539 1540 1541 1542 1543 1544 1545 1547 1548 1550 1550 1551
1436 1440 1446 1461 1461 1456 1465 1473 1452 1451 1450 1448 1448 1452 1458 1462 1466 1471 1476 1481 1485 1490 1494 1498 1501 1505 1508 1511 1515 1518 1521 1524 1526 1528 1530 1532 1534 1535 1536 1538 1539 1540 1542 1543 1544 1545 1547 1548 1548